Voltar ao catálogo

STARLINK-34640

AtivoComunicaçõesVLEO
NORAD 65092·PAYLOAD·🇺🇸 United States

Lançado Aug 4, 2025 de Cape Canaveral Space Force Station

Loading…

Próximas Passagens (próximas 24 horas)

TLE

AtualizadoSource: CelesTrak SupGP

Época: Sep 15, 2026, 02:31 UTC

1 65092C 25167Q   26258.10534722 -.00047003  00000+0 -15113-2 0  2586
2 65092  53.1585 226.7807 0001285  90.3841 177.4146 15.31728840    14

Acompanhe STARLINK-34640 em tempo real com AllMySat

Download on the App Store